[[{"header":{"parameterUnit":"m.s-1","parameterCategory":1,"la1":30.2991,"la2":30.254,"lo1":-89.0895,"lo2":-89.0444,"dy":0.0017,"dx":0.0017,"nx":28,"ny":28,"refTime":"2024-02-26T09:00:00:Z","depth":0,"parameterNumber":2,"parameterNumberName":"U-component_of_WINDS"},"data":[0,0,0,0,0,0,0,0,0,0,0,0,0,0,0,0,0,0,0,0,0,0,0,0,0,0,0,0,0,0,0,0,0,0,0,0,0,0,0,0,0,0,0,0,0,0,0,0,0,0,0,0,0,0,0,0,0,0,2.0744,2.0744,0,2.0804,2.0804,2.0805,2.0786,2.0785,2.0784,2.0782,2.084,2.0843,2.0845,0,0,0,0,0,0,0,0,0,0,0,0,0,2.0609,2.0612,2.0744,2.0744,2.0745,2.0803,2.0804,2.0805,2.0786,2.0785,2.0783,2.0782,2.0839,2.0842,2.0846,0,0,0,0,0,0,0,0,0,0,0,0,0,2.0668,2.0613,2.0743,2.0743,2.0743,2.0803,2.0804,2.0805,2.0787,2.0785,2.0783,2.0781,2.0838,2.0842,2.0846,2.0909,0,0,2.0858,2.086,0,0,0,0,0,0,0,0,2.0665,2.0673,2.0742,2.0743,2.0744,2.0786,2.0778,2.084,2.0787,2.077,2.0782,2.078,2.0823,2.0828,2.0844,2.0911,2.0914,2.0859,2.0861,2.0863,2.0864,0,0,0,0,0,0,0,2.0661,2.067,2.0767,2.0743,2.0744,2.0738,2.0745,2.079,2.0806,2.0771,2.077,2.0778,2.0823,2.084,2.0845,2.0915,2.0859,2.0862,2.0865,2.0866,2.1037,2.1039,0,0,0,0,0,0,2.0657,2.0667,2.0765,2.0769,2.0699,2.0742,2.0749,2.0774,2.0806,2.0809,2.0779,2.0777,2.0834,2.084,2.0847,2.0922,2.0863,2.0867,2.0869,2.1035,2.1037,2.104,0,0,0,0,0,0,2.0654,2.0666,2.0763,2.0718,2.073,2.0747,2.0774,2.0776,2.0793,2.0812,2.0814,2.0794,2.0832,2.0841,2.0894,2.0924,2.0869,2.0872,2.1032,2.1036,2.1038,2.1073,0,0,0,0,0,0,2.065,2.0665,2.069,2.0719,2.0732,2.081,2.0776,2.0779,2.08,2.0797,2.0826,2.0829,2.0832,2.0888,2.0898,2.0928,2.0875,2.103,2.1034,2.1037,2.1069,2.1077,2.1084,0,0,0,0,0,2.0645,2.0696,2.0691,2.0703,2.0764,2.0812,2.0819,2.0823,2.0803,2.0827,2.084,2.0828,2.0919,2.0893,2.0904,2.0937,2.1028,2.1033,2.1037,2.1066,2.1076,2.1083,0,0,0,0,0,0,2.0668,2.07,2.0694,2.0756,2.0782,2.0808,2.0839,2.0833,2.0863,2.0859,2.0861,2.0868,2.0922,2.0935,2.0905,2.0999,2.097,2.0977,2.0988,2.0998,2.1005,2.1,2.0879,0,0,0,0,0,2.0681,2.0719,2.0744,2.0796,2.0809,2.0822,2.0843,2.0844,2.087,2.088,2.0896,2.092,2.0955,2.0977,2.1009,2.1072,2.1077,2.1099,2.1106,2.1112,2.1118,2.1151,2.1161,2.1055,2.1055,2.1055,0,0,2.0707,2.0729,2.0752,2.0801,2.0821,2.0858,2.0831,2.0872,2.09,2.0886,2.0936,2.0949,2.0977,2.1034,2.106,2.1047,2.1148,2.1118,2.1123,2.1125,2.1157,2.1167,2.1176,2.1058,2.1058,2.1057,0,0,2.0773,2.0794,2.0839,2.086,2.0891,2.09,2.0911,2.0939,2.0947,2.0999,2.0989,2.1022,2.1081,2.11,2.1118,2.1193,2.1183,2.1203,2.124,2.1273,2.1281,2.1288,2.1314,2.1323,2.1209,2.1209,2.121,0,2.08,2.0858,2.0863,2.0905,2.0927,2.0918,2.0963,2.0983,2.1022,2.1036,2.1021,2.1095,2.1113,2.1175,2.1193,2.1208,2.122,2.1199,2.128,2.1287,2.1294,2.1318,2.1328,2.1212,2.1211,2.1211,2.1211,0,2.089,2.093,2.0963,2.1003,2.1028,2.1072,2.1082,2.1107,2.1106,2.1116,2.1168,2.119,2.1226,2.1241,2.124,2.1303,2.1294,2.1279,2.125,2.1306,2.1329,2.1339,2.1215,2.1214,2.1213,2.1213,0,0,2.097,2.1014,2.1025,2.1044,2.1078,2.1108,2.1151,2.1188,2.1209,2.1237,2.1272,2.1323,2.131,2.133,2.1331,2.136,2.1417,2.1341,2.1342,2.1354,2.1486,2.1496,2.1507,2.1411,2.1413,2.1414,2.1484,0,2.1038,2.1115,2.1121,2.119,2.1227,2.1219,2.1257,2.1281,2.1292,2.1324,2.1335,2.1371,2.1351,2.1363,2.1392,2.1404,2.1443,2.1399,2.1442,2.1444,2.1434,2.1519,2.153,2.1594,2.1493,2.1494,2.1495,0,2.1127,2.1159,2.1232,2.1262,2.1277,2.1311,2.1346,2.1377,2.1404,2.141,2.1433,2.143,2.1473,2.1444,2.1503,2.1473,2.1491,2.15,2.1502,2.1505,2.1472,2.1523,2.1615,2.1624,2.151,2.1509,2.1508,0,2.1177,2.1239,2.129,2.1306,2.1342,2.1366,2.1381,2.1407,2.1429,2.1459,2.1473,2.1508,2.1526,2.1552,2.1559,2.1537,2.1617,2.1588,2.1622,2.1621,2.1637,2.1636,2.1732,2.1651,2.1651,2.1651,2.1651,0,2.1251,2.1296,2.1313,2.1345,2.1394,2.1401,2.145,2.1464,2.1487,2.152,2.1516,2.1547,2.1554,2.1586,2.1591,2.1638,2.1647,2.1652,2.1652,2.1652,2.1651,2.1662,2.1657,2.1654,2.1653,2.1653,2.1652,0,2.1315,2.1329,2.1384,2.1414,2.1423,2.1458,2.1483,2.1513,2.1524,2.1566,2.1576,2.1593,2.163,2.164,2.1684,2.1688,2.1743,2.174,2.1734,2.1734,2.1766,2.1762,2.1872,2.1886,2.1797,2.1798,2.1799,0,2.1361,2.1395,2.143,2.1452,2.147,2.1506,2.1529,2.1538,2.1562,2.1596,2.1621,2.1659,2.1689,2.1749,2.1764,2.1798,2.1795,2.1831,2.18,2.1798,2.1794,2.1792,2.1795,2.1836,2.1837,2.1838,2.1839,0,2.144,2.1446,2.148,2.1517,2.1545,2.1574,2.1602,2.162,2.1632,2.1659,2.1699,2.1723,2.1769,2.1806,2.184,2.1855,2.1848,2.1849,2.1858,2.1857,2.1852,2.1854,2.1749,2.1846,2.1845,2.1845,2.1844,2.1844,2.1495,2.1526,2.1555,2.1593,2.1616,2.1642,2.1671,2.1687,2.172,2.176,2.1762,2.1805,2.1831,2.1877,2.1894,2.1926,2.1915,2.1929,2.1932,2.1935,2.1937,2.1848,2.1933,2.1933,2.1932,2.1932,2.1932,0,2.1573,2.1593,2.1628,2.1668,2.1698,2.1692,2.1723,2.1747,2.1786,2.1812,2.1842,2.1887,2.1923,2.1942,2.1977,2.2,2.1997,2.2008,2.2006,2.2009,2.1946,2.1934,2.201,2.201,2.201,2.2009,2.2009,2.2009,2.1618,2.1668,2.1678,2.1739,2.1757,2.18,2.1818,2.1842,2.1863,2.1914,2.1945,2.1957,2.198,2.2017,2.205,2.2054,2.2067,2.2079,2.2082,2.2022,2.2014,2.2006,2.1995,2.2082,2.2082,2.2142,2.2143,2.2143]},{"header":{"parameterUnit":"m.s-1","parameterCategory":1,"la1":30.2991,"la2":30.254,"lo1":-89.0895,"lo2":-89.0444,"dy":0.0017,"dx":0.0017,"nx":28,"ny":28,"refTime":"2024-02-26T09:00:00:Z","depth":0,"parameterNumber":3,"parameterNumberName":"V-component_of_WINDS"},"data":[0,0,0,0,0,0,0,0,0,0,0,0,0,0,0,0,0,0,0,0,0,0,0,0,0,0,0,0,0,0,0,0,0,0,0,0,0,0,0,0,0,0,0,0,0,0,0,0,0,0,0,0,0,0,0,0,0,0,5.4888,5.4888,0,5.4868,5.4868,5.4868,5.4813,5.4812,5.481,5.4809,5.479,5.4791,5.4791,0,0,0,0,0,0,0,0,0,0,0,0,0,5.4882,5.4882,5.4888,5.4888,5.4888,5.4868,5.4868,5.4868,5.4813,5.4811,5.481,5.4809,5.479,5.4791,5.4791,0,0,0,0,0,0,0,0,0,0,0,0,0,5.4875,5.4882,5.4888,5.4858,5.4855,5.4868,5.4868,5.4867,5.4813,5.4811,5.481,5.4808,5.479,5.4791,5.4791,5.4833,0,0,5.4794,5.4795,0,0,0,0,0,0,0,0,5.4876,5.4876,5.4863,5.486,5.4857,5.4841,5.4858,5.4856,5.4814,5.4829,5.4809,5.4807,5.4809,5.4808,5.4808,5.4832,5.4831,5.4794,5.4795,5.4795,5.4795,0,0,0,0,0,0,0,5.4876,5.4876,5.488,5.4863,5.4859,5.4846,5.4843,5.4858,5.4829,5.4828,5.4824,5.4822,5.4807,5.4807,5.4807,5.4831,5.4794,5.4795,5.4796,5.4796,5.4888,5.489,0,0,0,0,0,0,5.4881,5.4877,5.4881,5.488,5.4862,5.4848,5.4845,5.4848,5.4829,5.4824,5.4824,5.4819,5.4807,5.4806,5.4806,5.4854,5.4795,5.4796,5.4797,5.4886,5.4888,5.489,0,0,0,0,0,0,5.4881,5.4882,5.4882,5.4877,5.4876,5.485,5.4854,5.4849,5.4849,5.4826,5.482,5.4829,5.4805,5.4805,5.4826,5.4852,5.4796,5.4797,5.4884,5.4887,5.4889,5.4948,0,0,0,0,0,0,5.4881,5.4882,5.4897,5.4878,5.4877,5.4902,5.4856,5.4849,5.4851,5.4845,5.483,5.4825,5.4804,5.4825,5.4827,5.4852,5.4798,5.4881,5.4885,5.4888,5.4944,5.4953,5.4961,0,0,0,0,0,5.4881,5.4915,5.4898,5.4899,5.4895,5.4903,5.4903,5.4877,5.4853,5.4868,5.4853,5.4826,5.4849,5.4828,5.483,5.4856,5.4879,5.4884,5.4888,5.494,5.4951,5.496,0,0,0,0,0,0,5.4938,5.4912,5.4893,5.4921,5.4915,5.4894,5.4912,5.4889,5.489,5.4885,5.4853,5.485,5.4876,5.4868,5.4845,5.4895,5.486,5.4865,5.4899,5.4909,5.4917,5.4919,5.4799,0,0,0,0,0,5.4953,5.4962,5.4939,5.4966,5.4964,5.4939,5.4942,5.4922,5.4915,5.4912,5.4899,5.4893,5.4899,5.4904,5.4908,5.4943,5.4939,5.4961,5.4969,5.4976,5.4981,5.5,5.501,5.4904,5.4904,5.4904,0,0,5.4986,5.4973,5.4981,5.4978,5.497,5.4981,5.4937,5.495,5.4958,5.4914,5.4934,5.4924,5.4915,5.4944,5.4956,5.4938,5.5009,5.4982,5.4987,5.4988,5.5005,5.5015,5.5024,5.4907,5.4907,5.4906,0,0,5.5051,5.5042,5.5064,5.5058,5.5047,5.503,5.5036,5.5019,5.501,5.5029,5.4997,5.5006,5.5017,5.5012,5.5012,5.5076,5.5051,5.5078,5.5121,5.514,5.5148,5.5155,5.5179,5.5188,5.5083,5.5083,5.5083,0,5.5094,5.5107,5.5078,5.5093,5.5094,5.5054,5.5077,5.5072,5.5064,5.5066,5.5045,5.5058,5.505,5.5077,5.5093,5.5093,5.5099,5.508,5.5149,5.5156,5.5163,5.5185,5.5194,5.5086,5.5086,5.5086,5.5085,0,5.516,5.5171,5.519,5.5183,5.5185,5.5204,5.5178,5.5184,5.5164,5.515,5.517,5.5159,5.516,5.5165,5.5146,5.519,5.5179,5.5155,5.5119,5.5176,5.5197,5.5205,5.5091,5.509,5.5089,5.5088,0,0,5.5261,5.5237,5.5245,5.5241,5.5227,5.5235,5.5253,5.5253,5.5259,5.5255,5.527,5.528,5.5257,5.5256,5.5237,5.5253,5.5306,5.5226,5.5226,5.5242,5.5354,5.5373,5.5384,5.5289,5.5291,5.5292,5.5355,0,5.5323,5.535,5.5325,5.5358,5.5368,5.5331,5.5346,5.534,5.5327,5.5334,5.5319,5.5328,5.5297,5.5296,5.531,5.5296,5.5328,5.5291,5.5303,5.5304,5.5307,5.5394,5.5414,5.5474,5.5363,5.5364,5.5365,0,5.5398,5.5398,5.5432,5.5416,5.5419,5.5433,5.5433,5.5439,5.5432,5.5421,5.542,5.5396,5.5413,5.5378,5.5402,5.5377,5.5381,5.5375,5.5376,5.5377,5.5338,5.5398,5.5493,5.5502,5.5377,5.5376,5.5375,0,5.5469,5.5477,5.5498,5.5496,5.5478,5.5489,5.5482,5.5473,5.5475,5.5475,5.5476,5.5478,5.5479,5.5481,5.5459,5.5435,5.5485,5.5448,5.5478,5.5479,5.5491,5.549,5.5588,5.5492,5.5492,5.5492,5.5491,0,5.5541,5.5564,5.553,5.5543,5.5567,5.5538,5.5564,5.5553,5.5545,5.5556,5.5524,5.5535,5.5505,5.5513,5.5496,5.5518,5.5519,5.5511,5.5507,5.5515,5.5516,5.5517,5.5512,5.5494,5.5493,5.5493,5.5493,0,5.5625,5.5602,5.5624,5.5605,5.5601,5.562,5.5604,5.5616,5.5601,5.5616,5.5617,5.5594,5.5602,5.558,5.5585,5.5573,5.5606,5.5594,5.5608,5.5605,5.5636,5.5634,5.5739,5.5752,5.5647,5.5648,5.5649,0,5.5673,5.5689,5.5672,5.5677,5.5672,5.568,5.5683,5.5655,5.5659,5.5651,5.5665,5.567,5.5673,5.5688,5.5672,5.5676,5.5664,5.5701,5.5665,5.5673,5.5666,5.5666,5.5667,5.5709,5.571,5.5711,5.5712,0,5.576,5.5749,5.5753,5.5754,5.5757,5.5757,5.5754,5.576,5.573,5.5736,5.5744,5.5747,5.5752,5.5758,5.5758,5.5752,5.5728,5.5723,5.5731,5.5739,5.5747,5.5744,5.563,5.5721,5.572,5.572,5.5719,5.5719,5.5828,5.5841,5.5831,5.5837,5.5832,5.5831,5.5841,5.5827,5.5833,5.5835,5.5818,5.583,5.5822,5.582,5.5816,5.5825,5.5809,5.5819,5.5822,5.5825,5.583,5.5745,5.5825,5.5825,5.5825,5.5824,5.5824,0,5.5915,5.5907,5.5912,5.5909,5.5915,5.589,5.5886,5.5892,5.5903,5.5897,5.5901,5.5911,5.5916,5.5901,5.5905,5.5915,5.5904,5.5917,5.5917,5.5916,5.5845,5.5838,5.5926,5.5926,5.5926,5.5926,5.5926,5.5926,5.5961,5.5982,5.5969,5.5988,5.5979,5.599,5.599,5.5989,5.5984,5.5996,5.6001,5.599,5.5981,5.5984,5.5989,5.5984,5.5988,5.6005,5.5997,5.5931,5.5921,5.5911,5.5905,5.6006,5.6006,5.6067,5.6068,5.6068]}]]